{"data":{"norad_id":55914,"epoch":"2026-05-25T04:45:12.441024Z","epoch_age_seconds":57909,"freshness":"FRESH","line1":"1 55914U 23037A   26145.19806066 -.00000012  00000+0  68306-5 0  9994","line2":"2 55914  69.9992 111.7057 0003403 268.4692  91.6078 14.98331937175630","mean_motion":14.98331937,"eccentricity":0.0003403,"inclination_deg":69.9992,"raan_deg":111.7057,"arg_perigee_deg":268.4692,"mean_anomaly_deg":91.6078,"bstar":6.8306e-6,"rev_number":17563,"period_min":96.106874881357,"perigee_km":569.68475233576,"apogee_km":574.41504954054,"semimajor_km":6950.1869009382,"source":"CELESTRAK","updated_at":"2026-05-25T13:38:17.888785Z"}}